User: anonymous   Login
Location: Hawks Ness
(60.2333°N, 1.1667°W)
Time: 03:42:13
(UTC+00:00)
Language:

Okean 1-7 Rocket - Orbit

View from above orbital plane
View from above orbital plane
View from above satellite
View from above satellite

Ground track
Ground track

The orbit data is extracted from the following two-line orbital elements,

1 23318U 94066B   19340.48644086  .00000044  00000-0  28124-5 0  9999
2 23318  82.5432  51.7743 0024205 160.8875 199.3251 14.78857714355980
Epoch (UTC): 06 December 2019 11:40:28
Eccentricity: 0.0024205
inclination: 82.5432°
perigee height: 616 km
apogee height: 650 km
right ascension of ascending node: 51.7743°
argument of perigee: 160.8875°
revolutions per day: 14.78857714
mean anomaly at epoch: 199.3251°
orbit number at epoch: 35598

The dashed part of the orbit path shows where the satellite is in the earth's shadow,  

DLR